Location: Newark
(33.4453°N, 112.0669°W)
Time: 11:32:11
(UTC+00:00)

Transit 4A - All Passes

Search period start: 19 February 2020 00:00
Search period end: 29 February 2020 00:00
Orbit: 872 x 973 km, 66.8° (Epoch: 18 February)

Date Brightness Start Highest point End Pass type
(mag) Time Alt. Az. Time Alt. Az. Time Alt. Az.
19 Feb - 06:14:56 10° ESE 06:16:39 11° ESE 06:18:21 10° E night (unlit)
19 Feb - 07:56:13 10° SSW 08:02:14 81° WNW 08:08:07 10° NNE night (unlit)
19 Feb - 09:47:20 10° WNW 09:49:25 12° NW 09:51:29 10° NNW night (unlit)
19 Feb - 17:03:11 10° NNW 17:08:52 50° ENE 17:14:39 10° SE daylight
19 Feb - 18:50:37 10° WNW 18:54:46 20° WSW 18:58:59 10° SSW daylight
20 Feb - 06:21:37 10° SSE 06:25:42 19° ESE 06:29:45 10° ENE night (unlit)
20 Feb - 08:05:46 10° SW 08:11:35 52° WNW 08:17:19 10° NNE night (unlit)
20 Feb - 15:29:16 10° NNE 15:31:00 11° NE 15:32:45 10° ENE daylight
20 Feb - 17:12:21 10° NNW 17:18:14 78° ENE 17:24:13 10° SSE daylight
20 Feb - 19:01:46 10° W 19:03:50 12° WSW 19:05:56 10° WSW daylight
21 Feb - 06:29:41 10° SSE 06:34:50 31° ESE 06:39:54 10° NE night (unlit)
21 Feb - 08:15:39 10° WSW 08:21:01 34° WNW 08:26:19 10° N night (unlit)
21 Feb - 15:36:57 10° N 15:40:43 17° NE 15:44:29 10° E daylight
21 Feb - 17:21:41 10° NNW 17:27:32 68° WSW 17:33:28 10° SSE daylight
22 Feb - 06:38:17 10° S 06:44:00 48° ESE 06:49:39 10° NE night (unlit)
22 Feb - 08:25:56 10° WSW 08:30:33 23° NW 08:35:07 10° N night (unlit)
22 Feb - 15:45:31 10° N 15:50:18 25° NE 15:55:09 10° ESE daylight
22 Feb - 17:31:14 10° NW 17:36:45 43° WSW 17:42:22 10° S daylight
23 Feb - 06:47:17 10° SSW 06:53:16 77° ESE 06:59:08 10° NNE night (unlit)
23 Feb - 08:36:47 10° W 08:40:11 15° NW 08:43:33 10° NNW night (unlit)
23 Feb - 15:54:22 10° N 15:59:49 38° ENE 16:05:20 10° SE daylight
23 Feb - 17:41:04 10° NW 17:45:55 27° WSW 17:50:51 10° SSW daylight
24 Feb - 05:14:01 10° SE 05:16:53 14° ESE 05:19:44 10° ENE night (unlit)
24 Feb - 06:56:37 10° SSW 07:02:34 70° WNW 07:08:26 10° NNE night (unlit)
24 Feb - 16:03:26 10° NNW 16:09:14 59° ENE 16:15:07 10° SE daylight
24 Feb - 17:51:24 10° WNW 17:55:02 17° WSW 17:58:42 10° SW daylight
25 Feb - 05:21:27 10° SSE 05:25:58 23° ESE 05:30:26 10° ENE night (unlit)
25 Feb - 07:06:16 10° SW 07:11:57 45° WNW 07:17:33 10° NNE night (unlit)
25 Feb - 14:28:47 10° NNE 14:31:29 13° NE 14:34:13 10° ENE daylight
25 Feb - 16:12:40 10° NNW 16:18:35 90° SSW 16:24:35 10° SSE daylight
26 Feb - 05:29:43 10° S 05:35:07 36° ESE 05:40:25 10° NE night (unlit)
26 Feb - 07:16:18 10° WSW 07:21:25 30° NW 07:26:30 10° N night (unlit)
26 Feb - 14:36:57 10° N 14:41:10 20° NE 14:45:24 10° E daylight
26 Feb - 16:22:05 10° NW 16:27:50 58° WSW 16:33:42 10° S daylight
27 Feb - 05:38:29 10° S 05:44:19 57° ESE 05:50:04 10° NE night (unlit)
27 Feb - 07:26:45 10° W 07:30:59 20° NW 07:35:12 10° N night (unlit)
27 Feb - 14:45:39 10° N 14:50:44 29° NE 14:55:52 10° ESE daylight
27 Feb - 16:31:42 10° NW 16:37:03 36° WSW 16:42:29 10° S daylight
28 Feb - 05:47:36 10° SSW 05:53:35 89° ESE 05:59:28 10° NNE night (unlit)
28 Feb - 07:37:56 10° WNW 07:40:40 13° NW 07:43:22 10° NNW night (unlit)
28 Feb - 14:54:35 10° NNW 15:00:12 44° ENE 15:05:54 10° SE daylight
28 Feb - 16:41:41 10° NW 16:46:12 23° WSW 16:50:47 10° SSW daylight
